EN

Hourly Weather Alicante

Today, 17 January, Sunday

Time Temperature Precipitation Wind Pressure Humidity
00:00 +7°C° 0 mm 3 mps 770 mmHg 54%
01:00 +7°C° 0 mm 3 mps 770 mmHg 53%
02:00 +7°C° 0 mm 3 mps 770 mmHg 51%
03:00 +7°C° 0 mm 3 mps 769 mmHg 49%
04:00 +7°C° 0 mm 3 mps 769 mmHg 46%
05:00 +7°C° 0 mm 3 mps 769 mmHg 44%
06:00 +8°C° 0 mm 3 mps 769 mmHg 41%
07:00 +9°C° 0 mm 3 mps 769 mmHg 41%
08:00 +10°C° 0 mm 4 mps 769 mmHg 40%
09:00 +12°C° 0 mm 4 mps 769 mmHg 40%
10:00 +14°C° 0 mm 4 mps 769 mmHg 36%
11:00 +17°C° 0 mm 3 mps 769 mmHg 32%
12:00 +19°C° 0 mm 3 mps 769 mmHg 28%
13:00 +19°C° 0 mm 3 mps 768 mmHg 30%
14:00 +20°C° 0 mm 3 mps 768 mmHg 32%
15:00 +20°C° 0 mm 3 mps 767 mmHg 34%
16:00 +18°C° 0 mm 3 mps 767 mmHg 39%
17:00 +16°C° 0 mm 3 mps 768 mmHg 45%
18:00 +13°C° 0 mm 3 mps 768 mmHg 50%
19:00 +12°C° 0 mm 3 mps 768 mmHg 52%
20:00 +12°C° 0 mm 3 mps 768 mmHg 54%
21:00 +12°C° 0 mm 3 mps 768 mmHg 55%
22:00 +11°C° 0 mm 3 mps 768 mmHg 57%
23:00 +11°C° 0 mm 3 mps 769 mmHg 59%

Tomorrow, 18 January, Monday

Time Temperature Precipitation Wind Pressure Humidity
00:00 +12°C° 0 mm 2 mps 769 mmHg 61%
01:00 +10°C° 0 mm 2 mps 768 mmHg 64%
02:00 +10°C° 0 mm 2 mps 768 mmHg 67%
03:00 +9°C° 0 mm 2 mps 768 mmHg 70%
04:00 +10°C° 0 mm 1 mps 768 mmHg 73%
05:00 +9°C° 0 mm 1 mps 768 mmHg 75%
06:00 +9°C° 0 mm 1 mps 768 mmHg 77%
07:00 +11°C° 0 mm 1 mps 768 mmHg 72%
08:00 +12°C° 0 mm 1 mps 769 mmHg 67%
09:00 +14°C° 0 mm 2 mps 769 mmHg 62%
10:00 +15°C° 0 mm 2 mps 769 mmHg 58%
11:00 +16°C° 0 mm 1 mps 769 mmHg 55%
12:00 +18°C° 0 mm 1 mps 769 mmHg 52%
13:00 +17°C° 0 mm 2 mps 768 mmHg 52%
14:00 +17°C° 0 mm 2 mps 768 mmHg 53%
15:00 +17°C° 0 mm 2 mps 767 mmHg 54%
16:00 +15°C° 0 mm 2 mps 768 mmHg 65%
17:00 +13°C° 0 mm 1 mps 768 mmHg 76%
18:00 +11°C° 0 mm 1 mps 768 mmHg 87%
19:00 +11°C° 0 mm 1 mps 768 mmHg 87%
20:00 +10°C° 0 mm 1 mps 768 mmHg 88%
21:00 +10°C° 0 mm 1 mps 769 mmHg 88%
22:00 +10°C° 0 mm 1 mps 769 mmHg 88%
23:00 +9°C° 0 mm 1 mps 769 mmHg 87%

Day after tomorrow, 19 January, Tuesday

Time Temperature Precipitation Wind Pressure Humidity
00:00 +9°C° 0 mm 1 mps 769 mmHg 87%
01:00 +9°C° 0 mm 1 mps 768 mmHg 86%
02:00 +9°C° 0 mm 1 mps 768 mmHg 86%
03:00 +9°C° 0 mm 1 mps 767 mmHg 85%
04:00 +8°C° 0 mm 1 mps 767 mmHg 85%
05:00 +8°C° 0 mm 1 mps 767 mmHg 85%
06:00 +8°C° 0 mm 1 mps 767 mmHg 85%
07:00 +10°C° 0 mm 1 mps 767 mmHg 81%
08:00 +11°C° 0 mm 1 mps 767 mmHg 77%
09:00 +13°C° 0 mm 1 mps 767 mmHg 73%
10:00 +14°C° 0 mm 1 mps 767 mmHg 66%
11:00 +16°C° 0 mm 2 mps 766 mmHg 58%
12:00 +17°C° 0 mm 2 mps 766 mmHg 51%
13:00 +17°C° 0 mm 2 mps 765 mmHg 50%
14:00 +17°C° 0 mm 3 mps 765 mmHg 49%
15:00 +17°C° 0 mm 3 mps 764 mmHg 48%
16:00 +16°C° 0 mm 3 mps 764 mmHg 59%
17:00 +14°C° 0 mm 2 mps 764 mmHg 70%
18:00 +12°C° 0 mm 2 mps 764 mmHg 82%
19:00 +10°C° 0 mm 2 mps 764 mmHg 83%
20:00 +10°C° 0 mm 2 mps 764 mmHg 84%
21:00 +9°C° 0 mm 2 mps 764 mmHg 86%
22:00 +9°C° 0 mm 2 mps 764 mmHg 85%
23:00 +9°C° 0 mm 2 mps 763 mmHg 84%

20 January, Wednesday

Time Temperature Precipitation Wind Pressure Humidity
00:00 +9°C° 0 mm 1 mps 763 mmHg 84%
01:00 +9°C° 0 mm 1 mps 763 mmHg 83%
02:00 +9°C° 0 mm 1 mps 762 mmHg 82%
03:00 +9°C° 0 mm 1 mps 762 mmHg 81%
04:00 +9°C° 0 mm 1 mps 761 mmHg 81%
05:00 +9°C° 0 mm 1 mps 761 mmHg 81%
06:00 +9°C° 0 mm 1 mps 760 mmHg 82%
07:00 +10°C° 0 mm 1 mps 760 mmHg 78%
08:00 +11°C° 0 mm 1 mps 760 mmHg 74%
09:00 +13°C° 0 mm 1 mps 760 mmHg 70%
10:00 +14°C° 0 mm 1 mps 760 mmHg 64%
11:00 +15°C° 0 mm 1 mps 759 mmHg 57%
12:00 +16°C° 0 mm 1 mps 759 mmHg 51%
13:00 +16°C° 0.1 mm 2 mps 759 mmHg 52%
14:00 +14°C° 0.1 mm 3 mps 758 mmHg 53%
15:00 +14°C° 0.1 mm 4 mps 758 mmHg 54%
16:00 +13°C° 0 mm 3 mps 758 mmHg 61%
17:00 +11°C° 0 mm 3 mps 757 mmHg 68%
18:00 +10°C° 0 mm 3 mps 757 mmHg 74%
19:00 +10°C° 0 mm 2 mps 758 mmHg 73%
20:00 +10°C° 0 mm 2 mps 758 mmHg 71%
21:00 +9°C° 0 mm 2 mps 758 mmHg 70%
22:00 +10°C° 0 mm 2 mps 759 mmHg 70%
23:00 +10°C° 0 mm 3 mps 759 mmHg 70%

21 January, Thursday

Time Temperature Precipitation Wind Pressure Humidity
00:00 +10°C° 0 mm 4 mps 759 mmHg 70%
01:00 +10°C° 0 mm 4 mps 760 mmHg 73%
02:00 +8°C° 0 mm 4 mps 760 mmHg 76%
03:00 +9°C° 0 mm 3 mps 760 mmHg 80%
04:00 +9°C° 0 mm 3 mps 760 mmHg 80%
05:00 +9°C° 0 mm 3 mps 760 mmHg 81%
06:00 +9°C° 0 mm 3 mps 761 mmHg 82%
07:00 +10°C° 0 mm 3 mps 761 mmHg 79%
08:00 +11°C° 0 mm 3 mps 761 mmHg 75%
09:00 +12°C° 0 mm 4 mps 762 mmHg 72%
10:00 +14°C° 0 mm 5 mps 762 mmHg 65%
11:00 +16°C° 0 mm 6 mps 762 mmHg 58%
12:00 +18°C° 0 mm 7 mps 762 mmHg 51%
13:00 +19°C° 0 mm 6 mps 761 mmHg 50%
14:00 +19°C° 0 mm 6 mps 761 mmHg 48%
15:00 +19°C° 0 mm 6 mps 760 mmHg 47%
16:00 +16°C° 0 mm 6 mps 760 mmHg 53%
17:00 +15°C° 0 mm 5 mps 760 mmHg 58%
18:00 +13°C° 0 mm 4 mps 760 mmHg 64%
19:00 +13°C° 0 mm 4 mps 759 mmHg 65%
20:00 +13°C° 0 mm 4 mps 759 mmHg 66%
21:00 +13°C° 0 mm 5 mps 759 mmHg 68%
22:00 +12°C° 0 mm 5 mps 759 mmHg 68%
23:00 +12°C° 0 mm 5 mps 759 mmHg 69%

22 January, Friday

Time Temperature Precipitation Wind Pressure Humidity
00:00 +12°C° 0 mm 5 mps 758 mmHg 69%
01:00 +12°C° 0 mm 5 mps 758 mmHg 72%
02:00 +12°C° 0 mm 5 mps 758 mmHg 74%
03:00 +12°C° 0 mm 5 mps 759 mmHg 77%
04:00 +12°C° 0 mm 5 mps 759 mmHg 75%
05:00 +11°C° 0 mm 6 mps 759 mmHg 74%
06:00 +10°C° 0 mm 6 mps 759 mmHg 72%
07:00 +11°C° 0 mm 6 mps 760 mmHg 68%
08:00 +13°C° 0 mm 6 mps 760 mmHg 65%
09:00 +14°C° 0 mm 5 mps 760 mmHg 61%
10:00 +15°C° 0 mm 7 mps 760 mmHg 54%
11:00 +17°C° 0 mm 8 mps 760 mmHg 47%
12:00 +18°C° 0 mm 9 mps 760 mmHg 41%
13:00 +18°C° 0 mm 10 mps 760 mmHg 43%
14:00 +17°C° 0 mm 12 mps 760 mmHg 45%
15:00 +17°C° 0 mm 14 mps 760 mmHg 48%
16:00 +15°C° 0 mm 12 mps 760 mmHg 51%
17:00 +13°C° 0 mm 9 mps 761 mmHg 55%
18:00 +12°C° 0 mm 7 mps 761 mmHg 58%
19:00 +13°C° 0 mm 6 mps 761 mmHg 61%
20:00 +11°C° 0 mm 6 mps 762 mmHg 64%
21:00 +10°C° 0 mm 5 mps 762 mmHg 67%
22:00 +10°C° 0 mm 5 mps 763 mmHg 67%
23:00 +10°C° 0 mm 6 mps 763 mmHg 67%
Show more